This is the latest recevied weather packets stored in our database for station/object KM8V-8. If no packets are shown the sender has not sent any weather packets the latest 10 day(s).
| Time | Temp. | Humidity | Pressure | Rain* | Wind** | Luminosity | Snow |
|---|---|---|---|---|---|---|---|
| 1777647918 | 5.56° C | 97% | 1012.5 hPa | 2.29 mm | - | 118 W/m² | - |
| 1777647617 | 5.56° C | 96% | 1012.5 hPa | 2.03 mm | - | 78 W/m² | - |
| 1777647318 | 5.56° C | 96% | 1012.5 hPa | 1.78 mm | - | 68 W/m² | - |
| 1777647018 | 5.56° C | 96% | 1012.5 hPa | 1.52 mm | - | 72 W/m² | - |
| 1777646718 | 5.56° C | 96% | 1012.5 hPa | 1.52 mm | - | 77 W/m² | - |
| 1777646418 | 5.56° C | 96% | 1012.5 hPa | 1.27 mm | - | 84 W/m² | - |
| 1777646121 | 5.56° C | 96% | 1012.6 hPa | 1.27 mm | - | 90 W/m² | - |
| 1777645816 | 5.56° C | 96% | 1012.5 hPa | 1.02 mm | - | 83 W/m² | - |
| 1777645523 | 5.56° C | 96% | 1012.5 hPa | 0.76 mm | - | 86 W/m² | - |
| 1777645220 | 5.56° C | 96% | 1012.5 hPa | 0.76 mm | - | 98 W/m² | - |
| 1777644919 | 5.56° C | 96% | 1012.5 hPa | 0.51 mm | - | 73 W/m² | - |
| 1777644620 | 6.11° C | 96% | 1012.4 hPa | 0.51 mm | - | 53 W/m² | - |
| 1777644322 | 6.11° C | 96% | 1012.4 hPa | 0.25 mm | - | 47 W/m² | - |
| 1777644022 | 6.11° C | 96% | 1012.4 hPa | 0.25 mm | - | 48 W/m² | - |
| 1777643720 | 6.11° C | 96% | 1012.4 hPa | 0.25 mm | - | 49 W/m² | - |
| 1777643436 | 6.11° C | 96% | 1012.4 hPa | 0 mm | - | 37 W/m² | - |
| 1777643122 | 6.11° C | 96% | 1012.4 hPa | 0 mm | - | 41 W/m² | - |
| 1777642819 | 6.11° C | 96% | 1012.5 hPa | 0 mm | - | 55 W/m² | - |
| 1777642519 | 6.11° C | 96% | 1012.5 hPa | 0 mm | - | 47 W/m² | - |
| 1777642219 | 6.11° C | 96% | 1012.4 hPa | 0 mm | - | 82 W/m² | - |
| 1777641923 | 6.11° C | 96% | 1012.5 hPa | 0 mm | - | 58 W/m² | - |
| 1777641619 | 6.11° C | 96% | 1012.5 hPa | 0 mm | - | 49 W/m² | - |
| 1777641319 | 6.11° C | 96% | 1012.6 hPa | 0 mm | - | 114 W/m² | - |
| 1777641019 | 6.11° C | 96% | 1012.6 hPa | 0.25 mm | - | 77 W/m² | - |
| 1777640719 | 6.11° C | 96% | 1012.6 hPa | 0.25 mm | - | 43 W/m² | - |
* Rain latest hour (hover to see other rain measurements)
** Current wind speed in m/s (hover to see current wind gust speed)